| time (UTC) | temp C | wind direction | speed KPH | gust KPH | rain 1hr cm | rain 24hr cm | rain mn cm | humidity % | barometer mb |
| 20260504081858 | 5 | 291 | 1.6 | 3.2 | 0.00 | 0.00 | 0.00 | 65 | 988.5 |
| 20260504081354 | 5 | 296 | 0.0 | 0.0 | 0.00 | 0.00 | 0.00 | 68 | 988.6 |
| 20260504080850 | 6 | 277 | 3.2 | 6.4 | 0.00 | 0.00 | 0.00 | 64 | 988.4 |
| 20260504080348 | 6 | 276 | 3.2 | 3.2 | 0.00 | 0.00 | 0.00 | 62 | 988.2 |
| 20260504070315 | 6 | 239 | 8.0 | 11.3 | 0.00 | 0.00 | 0.00 | 59 | 988.1 |
| 20260504060235 | 7 | 297 | 1.6 | 3.2 | 0.00 | 0.00 | 0.00 | 58 | 988.1 |
| 20260504050703 | 7 | 278 | 1.6 | 1.6 | 0.00 | 0.00 | 0.00 | 59 | 988.5 |
| 20260504050200 | 8 | 304 | 3.2 | 3.2 | 0.00 | 0.00 | 0.00 | 59 | 988.6 |
| 20260504045657 | 7 | 280 | 1.6 | 3.2 | 0.00 | 0.00 | 0.00 | 58 | 988.5 |
| 20260504045152 | 7 | 247 | 0.0 | 0.0 | 0.00 | 0.00 | 0.00 | 62 | 988.4 |
| 20260504044650 | 8 | 289 | 0.0 | 1.6 | 0.00 | 0.00 | 0.00 | 60 | 988.5 |
| 20260504044146 | 7 | 282 | 1.6 | 1.6 | 0.00 | 0.00 | 0.00 | 61 | 988.6 |
| 20260504043643 | 7 | 289 | 0.0 | 1.6 | 0.00 | 0.00 | 0.00 | 60 | 988.5 |
| 20260504043141 | 7 | 303 | 3.2 | 3.2 | 0.00 | 0.00 | 0.00 | 59 | 988.4 |
| 20260504042638 | 7 | 295 | 0.0 | 0.0 | 0.00 | 0.00 | 0.00 | 67 | 988.5 |
| 20260504042134 | 8 | 278 | 0.0 | 0.0 | 0.00 | 0.00 | 0.00 | 63 | 988.6 |
| 20260504041630 | 7 | 290 | 0.0 | 0.0 | 0.00 | 0.00 | 0.00 | 63 | 988.5 |
| 20260504041127 | 7 | 278 | 0.0 | 1.6 | 0.00 | 0.00 | 0.00 | 67 | 988.7 |
| 20260504040624 | 7 | 292 | 0.0 | 1.6 | 0.00 | 0.00 | 0.00 | 61 | 988.7 |
| 20260504040121 | 8 | 293 | 0.0 | 1.6 | 0.00 | 0.00 | 0.00 | 61 | 988.7 |
| 20260504035617 | 8 | 295 | 0.0 | 0.0 | 0.00 | 0.00 | 0.00 | 61 | 988.7 |
| 20260504035114 | 7 | 291 | 0.0 | 0.0 | 0.00 | 0.00 | 0.00 | 61 | 988.8 |
| 20260504034612 | 7 | 285 | 0.0 | 1.6 | 0.00 | 0.00 | 0.00 | 67 | 988.8 |
| 20260504034108 | 7 | 288 | 1.6 | 1.6 | 0.00 | 0.00 | 0.00 | 66 | 988.9 |
| 20260504033607 | 7 | 282 | 1.6 | 1.6 | 0.00 | 0.00 | 0.00 | 60 | 988.8 |
| 20260504033103 | 8 | 279 | 1.6 | 1.6 | 0.00 | 0.00 | 0.00 | 60 | 988.8 |
| 20260504032600 | 8 | 284 | 1.6 | 1.6 | 0.00 | 0.00 | 0.00 | 59 | 988.8 |
| 20260504032057 | 8 | 283 | 3.2 | 3.2 | 0.00 | 0.00 | 0.00 | 59 | 988.9 |
| 20260504031554 | 7 | 287 | 1.6 | 1.6 | 0.00 | 0.00 | 0.00 | 60 | 989.3 |
| 20260504031050 | 7 | 290 | 1.6 | 3.2 | 0.00 | 0.00 | 0.00 | 64 | 989.1 |
| 20260504030548 | 7 | 283 | 1.6 | 1.6 | 0.00 | 0.00 | 0.00 | 66 | 989.2 |
| 20260504030043 | 7 | 287 | 1.6 | 1.6 | 0.00 | 0.00 | 0.00 | 64 | 989.3 |
| 20260504025541 | 8 | 277 | 3.2 | 4.8 | 0.00 | 0.00 | 0.00 | 66 | 989.3 |
| 20260504025038 | 8 | 282 | 9.7 | 12.9 | 0.00 | 0.00 | 0.00 | 63 | 989.2 |
| 20260504024535 | 8 | 210 | 3.2 | 9.7 | 0.00 | 0.00 | 0.00 | 61 | 989.2 |
| 20260504024032 | 8 | 275 | 4.8 | 4.8 | 0.00 | 0.00 | 0.00 | 55 | 989.2 |
| 20260504023528 | 8 | 199 | 6.4 | 9.7 | 0.00 | 0.00 | 0.00 | 54 | 989.2 |
| 20260504023024 | 8 | 266 | 6.4 | 9.7 | 0.00 | 0.00 | 0.00 | 55 | 989.2 |
| 20260504022520 | 8 | 254 | 8.0 | 9.7 | 0.00 | 0.00 | 0.00 | 55 | 989.2 |
| 20260504022017 | 8 | 228 | 4.8 | 4.8 | 0.00 | 0.00 | 0.00 | 55 | 989.1 |
| 20260504021514 | 8 | 236 | 8.0 | 9.7 | 0.00 | 0.00 | 0.00 | 55 | 989.2 |
| 20260504021012 | 8 | 234 | 6.4 | 9.7 | 0.00 | 0.00 | 0.00 | 57 | 989.2 |
| 20260504020508 | 8 | 264 | 6.4 | 6.4 | 0.00 | 0.00 | 0.00 | 58 | 989.3 |
| 20260504020005 | 8 | 176 | 3.2 | 4.8 | 0.00 | 0.00 | 0.00 | 59 | 989.3 |
| 20260504015501 | 8 | 223 | 6.4 | 9.7 | 0.00 | 0.00 | 0.00 | 59 | 989.5 |
| 20260504014956 | 8 | 278 | 6.4 | 6.4 | 0.00 | 0.00 | 0.00 | 59 | 989.2 |
| 20260504014453 | 8 | 253 | 11.3 | 14.5 | 0.00 | 0.00 | 0.00 | 59 | 989.1 |
| 20260504013950 | 8 | 301 | 1.6 | 3.2 | 0.00 | 0.00 | 0.00 | 61 | 989.3 |
| 20260504013449 | 7 | 232 | 6.4 | 9.7 | 0.00 | 0.00 | 0.00 | 60 | 989.3 |
| 20260504012944 | 7 | 296 | 3.2 | 3.2 | 0.00 | 0.00 | 0.00 | 62 | 989.4 |
| 20260504012443 | 7 | 340 | 0.0 | 1.6 | 0.00 | 0.00 | 0.00 | 64 | 989.4 |
| 20260504011940 | 7 | 285 | 0.0 | 0.0 | 0.00 | 0.00 | 0.00 | 68 | 989.2 |
| 20260504011436 | 7 | 284 | 1.6 | 1.6 | 0.00 | 0.00 | 0.00 | 63 | 989.3 |
| 20260504010932 | 7 | 276 | 1.6 | 1.6 | 0.00 | 0.00 | 0.00 | 60 | 989.2 |
| 20260504010428 | 7 | 295 | 0.0 | 0.0 | 0.00 | 0.00 | 0.00 | 62 | 989.0 |
| 20260504005924 | 7 | 287 | 1.6 | 1.6 | 0.00 | 0.00 | 0.00 | 59 | 989.1 |
| 20260504005421 | 7 | 292 | 1.6 | 1.6 | 0.00 | 0.00 | 0.00 | 59 | 989.2 |
| 20260504004919 | 7 | 274 | 1.6 | 1.6 | 0.00 | 0.00 | 0.00 | 58 | 989.1 |
| 20260504004417 | 8 | 292 | 0.0 | 1.6 | 0.00 | 0.00 | 0.00 | 58 | 989.2 |
| 20260504003913 | 8 | 296 | 1.6 | 1.6 | 0.00 | 0.00 | 0.00 | 54 | 989.2 |
| 20260504003410 | 8 | 317 | 1.6 | 1.6 | 0.00 | 0.00 | 0.00 | 54 | 989.0 |
| 20260504002906 | 8 | 253 | 8.0 | 9.7 | 0.00 | 0.00 | 0.00 | 53 | 989.0 |
| 20260504002403 | 8 | 11 | 6.4 | 9.7 | 0.00 | 0.00 | 0.00 | 53 | 988.9 |
| 20260504001901 | 8 | 298 | 1.6 | 3.2 | 0.00 | 0.00 | 0.00 | 53 | 988.9 |
| 20260504001358 | 7 | 280 | 0.0 | 0.0 | 0.00 | 0.00 | 0.00 | 60 | 988.8 |
| 20260504000854 | 7 | 283 | 0.0 | 0.0 | 0.00 | 0.00 | 0.00 | 63 | 988.7 |
| 20260504000354 | 7 | 283 | 0.0 | 0.0 | 0.00 | 0.00 | 0.00 | 59 | 988.7 |
| 20260503235849 | 8 | 283 | 0.0 | 0.0 | 0.00 | 0.00 | 0.00 | 57 | 988.5 |
| 20260503235347 | 8 | 287 | 0.0 | 1.6 | 0.00 | 0.00 | 0.00 | 57 | 988.4 |
| 20260503234844 | 8 | 281 | 1.6 | 1.6 | 0.00 | 0.00 | 0.00 | 55 | 988.5 |
| 20260503234342 | 8 | 280 | 0.0 | 1.6 | 0.00 | 0.00 | 0.00 | 57 | 988.2 |
| 20260503233839 | 8 | 280 | 1.6 | 1.6 | 0.00 | 0.00 | 0.00 | 52 | 988.4 |
| 20260503233335 | 8 | 288 | 0.0 | 0.0 | 0.00 | 0.00 | 0.00 | 52 | 988.4 |
| 20260503232831 | 9 | 287 | 0.0 | 0.0 | 0.00 | 0.00 | 0.00 | 50 | 988.1 |
| 20260503232329 | 9 | 289 | 0.0 | 0.0 | 0.00 | 0.00 | 0.00 | 50 | 988.2 |
| 20260503231827 | 10 | 324 | 1.6 | 1.6 | 0.00 | 0.00 | 0.00 | 50 | 988.1 |
| 20260503231324 | 9 | 272 | 3.2 | 3.2 | 0.00 | 0.00 | 0.00 | 49 | 988.1 |
| 20260503230819 | 9 | 294 | 0.0 | 1.6 | 0.00 | 0.00 | 0.00 | 50 | 988.0 |
| 20260503230317 | 10 | 285 | 1.6 | 3.2 | 0.00 | 0.00 | 0.00 | 48 | 988.2 |
| 20260503225814 | 10 | 266 | 6.4 | 9.7 | 0.00 | 0.00 | 0.00 | 46 | 988.2 |
| 20260503225310 | 10 | 275 | 6.4 | 6.4 | 0.00 | 0.00 | 0.00 | 46 | 988.0 |
| 20260503224807 | 10 | 291 | 0.0 | 0.0 | 0.00 | 0.00 | 0.00 | 47 | 987.9 |
| 20260503224304 | 10 | 288 | 6.4 | 6.4 | 0.00 | 0.00 | 0.00 | 46 | 988.2 |
| 20260503223802 | 10 | 294 | 0.0 | 1.6 | 0.00 | 0.00 | 0.00 | 49 | 988.2 |
| 20260503223259 | 10 | 291 | 1.6 | 3.2 | 0.00 | 0.00 | 0.00 | 47 | 988.4 |
| 20260503222755 | 10 | 19 | 1.6 | 1.6 | 0.00 | 0.00 | 0.00 | 49 | 988.4 |
| 20260503222253 | 10 | 276 | 3.2 | 3.2 | 0.00 | 0.00 | 0.00 | 48 | 988.2 |
| 20260503221751 | 10 | 230 | 4.8 | 6.4 | 0.00 | 0.00 | 0.00 | 47 | 988.2 |
| 20260503221249 | 10 | 265 | 6.4 | 6.4 | 0.00 | 0.00 | 0.00 | 47 | 988.1 |
| 20260503220745 | 10 | 283 | 4.8 | 4.8 | 0.00 | 0.00 | 0.00 | 49 | 988.2 |
| 20260503220242 | 10 | 271 | 4.8 | 6.4 | 0.00 | 0.00 | 0.00 | 48 | 988.4 |
| 20260503215739 | 10 | 287 | 1.6 | 3.2 | 0.00 | 0.00 | 0.00 | 51 | 988.4 |
| 20260503215236 | 10 | 292 | 3.2 | 4.8 | 0.00 | 0.00 | 0.00 | 49 | 988.2 |
| 20260503214734 | 10 | 270 | 1.6 | 3.2 | 0.00 | 0.00 | 0.00 | 48 | 988.5 |
| 20260503214230 | 9 | 292 | 3.2 | 3.2 | 0.00 | 0.00 | 0.00 | 52 | 988.4 |
| 20260503213729 | 9 | 280 | 3.2 | 3.2 | 0.00 | 0.00 | 0.00 | 52 | 988.5 |
| 20260503213226 | 9 | 282 | 4.8 | 4.8 | 0.00 | 0.00 | 0.00 | 48 | 988.5 |
| 20260503212722 | 10 | 282 | 3.2 | 4.8 | 0.00 | 0.00 | 0.00 | 51 | 988.4 |
| 20260503212220 | 9 | 263 | 4.8 | 4.8 | 0.00 | 0.00 | 0.00 | 50 | 988.2 |
| 20260503211718 | 9 | 267 | 1.6 | 3.2 | 0.00 | 0.00 | 0.00 | 51 | 988.2 |
| 20260503211213 | 9 | 314 | 3.2 | 3.2 | 0.00 | 0.00 | 0.00 | 49 | 988.2 |
| 20260503210709 | 9 | 289 | 1.6 | 3.2 | 0.00 | 0.00 | 0.00 | 51 | 988.2 |
| 20260503210207 | 9 | 227 | 9.7 | 11.3 | 0.00 | 0.00 | 0.00 | 48 | 988.2 |
| 20260503205702 | 9 | 271 | 4.8 | 6.4 | 0.00 | 0.00 | 0.00 | 48 | 988.4 |
| 20260503205158 | 9 | 253 | 11.3 | 14.5 | 0.00 | 0.00 | 0.00 | 48 | 988.4 |
| 20260503204655 | 9 | 284 | 8.0 | 12.9 | 0.00 | 0.00 | 0.00 | 48 | 988.1 |
| 20260503204153 | 10 | 211 | 6.4 | 9.7 | 0.00 | 0.00 | 0.00 | 47 | 987.9 |
| 20260503203649 | 10 | 289 | 3.2 | 4.8 | 0.00 | 0.00 | 0.00 | 47 | 988.2 |
| 20260503203147 | 10 | 58 | 3.2 | 3.2 | 0.00 | 0.00 | 0.00 | 47 | 988.2 |
| 20260503202644 | 10 | 280 | 1.6 | 1.6 | 0.00 | 0.00 | 0.00 | 48 | 988.1 |
| 20260503202142 | 10 | 289 | 1.6 | 3.2 | 0.00 | 0.00 | 0.00 | 48 | 988.1 |
| 20260503201640 | 9 | 285 | 4.8 | 4.8 | 0.00 | 0.00 | 0.00 | 45 | 988.1 |
| 20260503201137 | 9 | 291 | 3.2 | 3.2 | 0.00 | 0.00 | 0.00 | 47 | 988.4 |
| 20260503200633 | 9 | 273 | 4.8 | 4.8 | 0.00 | 0.00 | 0.00 | 46 | 988.4 |
| 20260503200130 | 10 | 259 | 8.0 | 11.3 | 0.00 | 0.00 | 0.00 | 45 | 988.4 |
| 20260503195627 | 10 | 253 | 3.2 | 3.2 | 0.00 | 0.00 | 0.00 | 44 | 988.4 |
| 20260503195124 | 10 | 219 | 4.8 | 9.7 | 0.00 | 0.00 | 0.00 | 44 | 988.4 |
| 20260503194621 | 10 | 291 | 1.6 | 1.6 | 0.00 | 0.00 | 0.00 | 44 | 988.5 |
| 20260503194116 | 10 | 286 | 3.2 | 4.8 | 0.00 | 0.00 | 0.00 | 43 | 988.5 |
| 20260503193613 | 11 | 279 | 6.4 | 9.7 | 0.00 | 0.00 | 0.00 | 41 | 988.4 |
| 20260503193108 | 11 | 268 | 3.2 | 4.8 | 0.00 | 0.00 | 0.00 | 39 | 988.5 |
| 20260503192604 | 11 | 292 | 4.8 | 6.4 | 0.00 | 0.00 | 0.00 | 37 | 988.6 |
| 20260503192100 | 11 | 298 | 1.6 | 3.2 | 0.00 | 0.00 | 0.00 | 39 | 988.6 |
| 20260503191557 | 11 | 248 | 6.4 | 9.7 | 0.00 | 0.00 | 0.00 | 39 | 988.6 |
| 20260503191054 | 10 | 251 | 4.8 | 6.4 | 0.00 | 0.00 | 0.00 | 41 | 988.5 |
| 20260503190551 | 11 | 246 | 4.8 | 9.7 | 0.00 | 0.00 | 0.00 | 38 | 988.7 |
| 20260503190048 | 11 | 264 | 4.8 | 6.4 | 0.00 | 0.00 | 0.00 | 35 | 988.8 |
| 20260503185544 | 11 | 160 | 3.2 | 3.2 | 0.00 | 0.00 | 0.00 | 37 | 988.7 |
| 20260503185044 | 11 | 259 | 4.8 | 4.8 | 0.00 | 0.00 | 0.00 | 35 | 988.9 |
| 20260503184540 | 10 | 18 | 8.0 | 12.9 | 0.00 | 0.00 | 0.00 | 35 | 988.9 |
| 20260503184037 | 10 | 292 | 3.2 | 4.8 | 0.00 | 0.00 | 0.00 | 40 | 989.0 |
| 20260503183534 | 10 | 269 | 8.0 | 9.7 | 0.00 | 0.00 | 0.00 | 38 | 989.1 |
| 20260503183031 | 10 | 297 | 3.2 | 4.8 | 0.00 | 0.00 | 0.00 | 38 | 989.2 |
| 20260503182529 | 12 | 290 | 8.0 | 14.5 | 0.00 | 0.00 | 0.00 | 34 | 989.3 |
| 20260503182027 | 10 | 346 | 1.6 | 1.6 | 0.00 | 0.00 | 0.00 | 36 | 989.3 |
| 20260503181523 | 11 | 281 | 8.0 | 11.3 | 0.00 | 0.00 | 0.00 | 37 | 989.3 |
| 20260503181020 | 11 | 338 | 1.6 | 1.6 | 0.00 | 0.00 | 0.00 | 45 | 989.2 |
| 20260503180517 | 11 | 293 | 6.4 | 9.7 | 0.00 | 0.00 | 0.00 | 35 | 989.2 |
| 20260503180014 | 11 | 279 | 6.4 | 6.4 | 0.00 | 0.00 | 0.00 | 40 | 989.4 |
| 20260503175512 | 10 | 49 | 6.4 | 12.9 | 0.00 | 0.00 | 0.00 | 38 | 989.5 |
| 20260503175009 | 9 | 256 | 4.8 | 4.8 | 0.00 | 0.00 | 0.00 | 42 | 989.6 |
| 20260503174506 | 10 | 263 | 6.4 | 9.7 | 0.00 | 0.00 | 0.00 | 37 | 989.6 |
| 20260503174002 | 10 | 222 | 6.4 | 11.3 | 0.00 | 0.00 | 0.00 | 39 | 989.5 |
| 20260503173457 | 10 | 257 | 3.2 | 4.8 | 0.00 | 0.00 | 0.00 | 35 | 989.6 |
| 20260503172954 | 11 | 301 | 4.8 | 6.4 | 0.00 | 0.00 | 0.00 | 36 | 989.4 |
| 20260503172452 | 11 | 333 | 3.2 | 4.8 | 0.00 | 0.00 | 0.00 | 40 | 989.6 |
| 20260503171948 | 10 | 316 | 3.2 | 4.8 | 0.00 | 0.00 | 0.00 | 38 | 989.7 |
| 20260503171445 | 10 | 295 | 4.8 | 6.4 | 0.00 | 0.00 | 0.00 | 41 | 989.6 |
| 20260503170943 | 9 | 290 | 1.6 | 1.6 | 0.00 | 0.00 | 0.00 | 50 | 989.5 |
| 20260503170438 | 9 | 293 | 1.6 | 1.6 | 0.00 | 0.00 | 0.00 | 45 | 989.7 |
| 20260503150831 | 5 | 293 | 3.2 | 6.4 | 0.00 | 0.00 | 0.00 | 51 | 990.5 |
| 20260503150327 | 7 | 283 | 4.8 | 4.8 | 0.00 | 0.00 | 0.00 | 45 | 990.8 |
| 20260503140251 | 4 | 269 | 3.2 | 3.2 | 0.00 | 0.00 | 0.00 | 53 | 990.7 |
| 20260503131221 | 5 | 323 | 3.2 | 4.8 | 0.00 | 0.00 | 0.00 | 59 | 990.5 |
| 20260503130719 | 5 | 249 | 4.8 | 6.4 | 0.00 | 0.00 | 0.00 | 58 | 990.6 |
| 20260503130215 | 5 | 227 | 3.2 | 4.8 | 0.00 | 0.00 | 0.00 | 60 | 990.8 |
| 20260503120141 | 2 | 293 | 3.2 | 3.2 | 0.00 | 0.00 | 0.00 | 75 | 990.6 |
| 20260503110609 | 1 | 263 | 3.2 | 3.2 | 0.00 | 0.00 | 0.00 | 81 | 990.5 |
| 20260503110106 | 1 | 92 | 0.0 | 3.2 | 0.00 | 0.00 | 0.00 | 81 | 990.3 |